Weather History for Truckee-Tahoe, CA

Change the Weather History Date:

Monday, September 9, 2013

  Actual Average Record
Temperature  
Mean Temperature 58 °F -  
Max Temperature 80 °F 77 °F 90 °F (1957)
Min Temperature 35 °F 37 °F 26 °F (1961)
Degree Days  
Heating Degree Days 8    
Growing Degree Days 8 (Base 50)    
Moisture  
Dew Point 31 °F    
Average Humidity 48    
Maximum Humidity 81    
Minimum Humidity 16    
Precipitation  
Precipitation 0.00 in - - ()
Sea Level Pressure  
Sea Level Pressure 30.14 in    
Wind  
Wind Speed 2 mph (NE)    
Max Wind Speed 10 mph    
Max Gust Speed 18 mph    
Visibility 10 miles    
Events      
Averages and records for this station are not official NWS values.
T = Trace of Precipitation, MM = Missing Value Source: NWS Daily Summary

Daily Weather History Graph

Daily Weather History Graph

Search for Another Location

Airport:

Trip Planner

Search our weather history database for the weather conditions in past years. The results will help you decide how hot, cold, wet, or windy it might be!

Date:

Astronomy

Sep. 09, 2013 Rise Set
Actual Time 6:36 AM PDT 7:18 PM PDT
Civil Twilight 6:09 AM PDT 7:45 PM PDT
Nautical Twilight 5:37 AM PDT 8:17 PM PDT
Astronomical Twilight 5:04 AM PDT 8:50 PM PDT
Moon 11:01 AM PDT (9/9) 9:40 PM PDT (9/9)
Length of Visible Light 13h 35m
Length of Day
12h 41m
Waxing Crescent, 20% of the Moon is Illuminated
Sep 9
Waxing Crescent
Sep 12
First Quarter
Sep 19
Full
Sep 26
Last Quarter
Oct 4
New

Hourly Weather History & Observations

Time (PDT) Temp. Windchill Dew Point Humidity Pressure Visibility Wind Dir Wind Speed Gust Speed Precip Events Conditions
12:15 AM 46.4 °F - 32.0 °F 57% 30.18 in 10.0 mi Calm Calm - N/A   Clear
12:35 AM 48.2 °F - 33.8 °F 58% 30.18 in 10.0 mi Calm Calm - N/A   Clear
12:55 AM 46.4 °F - 32.0 °F 57% 30.18 in 10.0 mi Calm Calm - N/A   Clear
1:15 AM 46.4 °F - 32.0 °F 57% 30.18 in 10.0 mi Calm Calm - N/A   Clear
1:35 AM 44.6 °F - 32.0 °F 61% 30.18 in 10.0 mi Calm Calm - N/A   Clear
1:55 AM 44.6 °F - 32.0 °F 61% 30.19 in 10.0 mi Calm Calm - N/A   Clear
2:15 AM 41.0 °F - 32.0 °F 70% 30.18 in 10.0 mi Calm Calm - N/A   Clear
2:35 AM 41.0 °F - 32.0 °F 70% 30.18 in 10.0 mi Calm Calm - N/A   Clear
2:55 AM 41.0 °F - 32.0 °F 70% 30.18 in 10.0 mi Calm Calm - N/A   Clear
3:15 AM 42.8 °F - 32.0 °F 66% 30.18 in 10.0 mi Calm Calm - N/A   Clear
3:35 AM 37.4 °F - 30.2 °F 75% 30.18 in 10.0 mi Calm Calm - N/A   Clear
3:55 AM 37.4 °F - 32.0 °F 81% 30.17 in 10.0 mi Calm Calm - N/A   Clear
4:15 AM 39.2 °F - 32.0 °F 75% 30.18 in 10.0 mi Calm Calm - N/A   Clear
4:35 AM 39.2 °F - 32.0 °F 75% 30.18 in 10.0 mi Calm Calm - N/A   Clear
4:55 AM 37.4 °F - 32.0 °F 81% 30.18 in 10.0 mi Calm Calm - N/A   Clear
5:15 AM 37.4 °F - 32.0 °F 81% 30.18 in 10.0 mi Calm Calm - N/A   Clear
5:35 AM 39.2 °F - 32.0 °F 75% 30.19 in 10.0 mi Calm Calm - N/A   Clear
5:55 AM 37.4 °F 34.9 °F 32.0 °F 81% 30.19 in 10.0 mi SSE 3.5 mph - N/A   Clear
6:15 AM 35.6 °F - 28.4 °F 75% 30.19 in 10.0 mi Calm Calm - N/A   Clear
6:35 AM 39.2 °F - 32.0 °F 75% 30.19 in 10.0 mi Calm Calm - N/A   Clear
6:55 AM 35.6 °F - 28.4 °F 75% 30.20 in 10.0 mi Calm Calm - N/A   Scattered Clouds
7:45 AM 41.0 °F - 30.2 °F 65% 30.20 in 10.0 mi Calm Calm - N/A   Scattered Clouds
8:55 AM 50.0 °F - 32.0 °F 50% 30.20 in 10.0 mi Calm Calm - N/A   Partly Cloudy
9:45 AM 59.0 °F - 32.0 °F 36% 30.19 in 10.0 mi Calm Calm - N/A   Partly Cloudy
10:50 AM 68.0 °F - 33.8 °F 28% 30.17 in 10.0 mi North 4.6 mph - N/A   Clear
11:45 AM 73.4 °F - 35.6 °F 25% 30.15 in 10.0 mi North 5.8 mph - N/A   Clear
12:45 PM 75.2 °F - 28.4 °F 18% 30.13 in 10.0 mi NNW 3.5 mph - N/A   Partly Cloudy
1:50 PM 77.0 °F - 30.2 °F 18% 30.10 in 10.0 mi WNW 3.5 mph - N/A   Partly Cloudy
2:50 PM 80.6 °F - 30.2 °F 16% 30.09 in 10.0 mi NE 8.1 mph - N/A   Partly Cloudy
4:55 PM 80.6 °F - 32.0 °F 17% 30.06 in 10.0 mi North 9.2 mph - N/A   Partly Cloudy
5:55 PM 77.0 °F - 28.4 °F 17% 30.06 in 10.0 mi NNE 8.1 mph - N/A   Clear
6:15 PM 77.0 °F - 28.4 °F 17% 30.06 in 10.0 mi NE 9.2 mph - N/A   Clear
6:35 PM 75.2 °F - 28.4 °F 18% 30.06 in 10.0 mi NE 10.4 mph 18.4 mph N/A   Clear
6:55 PM 75.2 °F - 28.4 °F 18% 30.06 in 10.0 mi NNE 10.4 mph - N/A   Clear
7:15 PM 73.4 °F - 28.4 °F 19% 30.07 in 10.0 mi NE 4.6 mph - N/A   Clear
7:35 PM 71.6 °F - 28.4 °F 20% 30.08 in 10.0 mi NNE 4.6 mph - N/A   Clear
7:55 PM 68.0 °F - 30.2 °F 24% 30.08 in 10.0 mi North 4.6 mph - N/A   Clear
8:15 PM 66.2 °F - 32.0 °F 28% 30.09 in 10.0 mi NNW 6.9 mph - N/A   Clear
8:35 PM 66.2 °F - 30.2 °F 26% 30.10 in 10.0 mi NE 3.5 mph - N/A   Clear
8:55 PM 59.0 °F - 28.4 °F 31% 30.10 in 10.0 mi SE 3.5 mph - N/A   Clear
9:15 PM 57.2 °F - 30.2 °F 36% 30.11 in 10.0 mi Calm Calm - N/A   Clear
9:35 PM 55.4 °F - 30.2 °F 38% 30.11 in 10.0 mi SSE 3.5 mph - N/A   Clear
9:55 PM 50.0 °F - 28.4 °F 43% 30.12 in 10.0 mi SSE 5.8 mph - N/A   Clear
10:15 PM 55.4 °F - 28.4 °F 36% 30.12 in 10.0 mi ESE 3.5 mph - N/A   Clear
10:35 PM 50.0 °F - 28.4 °F 43% 30.12 in 10.0 mi SSE 4.6 mph - N/A   Clear
10:55 PM 48.2 °F - 28.4 °F 46% 30.12 in 10.0 mi Calm Calm - N/A   Clear
11:15 PM 51.8 °F - 32.0 °F 47% 30.12 in 10.0 mi Calm Calm - N/A   Clear
11:35 PM 50.0 °F - 32.0 °F 50% 30.12 in 10.0 mi South 5.8 mph - N/A   Clear
11:55 PM 46.4 °F - 30.2 °F 53% 30.12 in 10.0 mi Calm Calm - N/A   Clear